{"data":{"norad_id":64749,"intl_designator":"2025-144AB","name":"STARLINK-34595","alt_names":[],"object_type":"PAYLOAD","status":"ACTIVE","operator":null,"country":"US","launch_date":"2025-07-02","launch_site_code":"AFETR","launch_vehicle":null,"mission":null,"orbit_class":"UNKNOWN","rcs_meters":null,"size_class":null,"mass_kg":null,"dimensions":null,"purposes":["comms"],"wikipedia_slug":null,"has_3d_model":false,"image_url":null,"decayed_at":null,"tle_current":{"epoch":"2026-09-20T17:21:54.739872Z","epoch_age_seconds":108366,"freshness":"FRESH","line1":"1 64749U 25144AB  26263.72355023  .00013856  00000+0  42036-3 0  9992","line2":"2 64749  53.1623 354.3264 0001518  58.0897 302.0253 15.34407144 69587","mean_motion":15.34407144,"eccentricity":0.0001518,"inclination_deg":53.1623,"raan_deg":354.3264,"arg_perigee_deg":58.0897,"mean_anomaly_deg":302.0253,"bstar":0.00042036,"rev_number":6958,"period_min":93.847321138385,"perigee_km":461.64357049072,"apogee_km":463.72044314119,"semimajor_km":6840.819006816,"source":"CELESTRAK","updated_at":"2026-09-21T09:00:35.414380Z"}}}